Showing default

LEMUR 2 DELOITTE-1, 63259

Orbit data source: Space-Track

LEMUR 2 DELOITTE-1, 63259 is a payload satellite owned by Spire (US) in SSO that was launched on Sat, 15 Mar 2025 UTC via an FALCON 9 launch vehicle from the Air Force Western Test Range (AFWTR). Payload-class satellites include a variety of spacecraft equipped with specific instruments for various scientific and technological missions. These include communications satellites like Starlink; space stations such as the ISS; scientific satellites like the Hubble; Earth observation satellites from companies like Planet Labs, Umbra, and HawkEye 360; GPS; miniature CubeSats for education and research; and military/defense satellites.

Loading next visibility...
Identifier
63259, 2025-052BB
Orbit
SSO
Last TLE update
1 day ago
Origin
Manufacturer
Spire/Glasgow
Mission
Operational spacecraft
Bus & Motor
CUBESAT 6U, Unknown motor
Mass
10 kg wet, 10 kg dry
Launch date (UTC)
2025-03-15 (2 months ago)
Launch vehicle
FALCON 9
Launch site
Air Force Western Test Range (AFWTR)
Object type
Payload
Rocket body
Debris
Shape & HBR
Unknown
Radar Cross Section
Small (<0.1 m²)

Expand to show TLE details & history

TLE from 1 day ago
0 LEMUR 2 DELOITTE-1
1 63259U 25052BB  25118.96673551  .00007065  00000-0  68408-3 0  9995
2 63259  97.7365  13.3599 0002868  72.0345 288.1187 14.93033605  6790
Epoch: 2025-04-28T23:12Z
Definitive object data (Epoch: 2025-04-28T23:12:05.948Z)
Latitude
Longitude
168.16195°
Altitude
590.906 km
Speed
7.565 km/s
True Right ascension
00h 53m 26s
True Declination
0° 00' 00"
Sunlit
Object was in daylight at TLE epoch
Visualization TLE readout
Latitude
-8.74669°
Longitude
170.80125°
Altitude
592.52 km
Speed
7.563 km/s
Apparent Right ascension
03h 05m 31s
Apparent Declination
-28° 37' 54"
Sunlit
Object is in daylight
Visualization observer readout
Local Sidereal Time
18:06:55
Azimuth
87.406° E
Elevation
-51.314°
Doppler factor
1
Orbital elements
Apogee altitude
587.496 km
Perigee altitude
583.502 km
Semi-major axis
6,963.636 km
Eccentricity
0.0002868
Inclination
97.7365°
RAAN
13.3599°
Arg. of periapsis
72.0345°
True anomaly
288.08746°
Mean anomaly
288.1187°
Eccentric anomaly
288.10308°
Mean motion
3.73499 °/min
BSTAR
0.00068408
Orbital period
96.39 mins
Loading maneuver chart data...
Loading SW <> Apogee altitude chart data...
Loading historical data...
Loading historical data...
Loading historical data...
Loading historical data...
Loading historical data...
Loading historical data...
Loading historical data...

LEMUR 2 DELOITTE-1 Visibility forecast

Observer location: undefined°, undefined°

Span
Click to sort rows by Start time (UTC) header in descending order
Start Az.
Max El. time (UTC)
Max El. Az.
Max El.
End time (UTC)
End Az.
7 mins2025-04-30 17:08:54.026Z180.446° SSW2025-04-30 17:11:54.026Z257.099° W41.741°2025-04-30 17:15:54.026Z340.768° N
4 mins2025-05-01 04:52:54.026Z62.541° ENE2025-05-01 04:54:54.026Z99.372° ESE18.456°2025-05-01 04:56:54.026Z132.89° SE
5 mins2025-05-01 06:27:54.026Z338.759° N2025-05-01 06:29:54.026Z296.752° NW27.179°2025-05-01 06:32:54.026Z234.24° WSW
|